TimeCDT,TemperatureF,Dew PointF,Humidity,Sea Level PressureIn,VisibilityMPH,Wind Direction,Wind SpeedMPH,Gust SpeedMPH,PrecipitationIn,Events,Conditions,WindDirDegrees,DateUTC
12:15 AM,50.0,50.0,100,30.07,3.0,Calm,Calm,-,N/A,,Clear,0,2013-05-11 05:15:00
12:35 AM,48.2,48.2,100,30.07,3.0,NW,3.5,-,N/A,,Clear,310,2013-05-11 05:35:00
12:55 AM,50.0,50.0,100,30.07,1.5,Calm,Calm,-,N/A,,Mist,0,2013-05-11 05:55:00
1:15 AM,46.4,46.4,100,30.08,0.2,Calm,Calm,-,N/A,Fog,Fog,0,2013-05-11 06:15:00
1:35 AM,48.2,48.2,100,30.08,0.5,Calm,Calm,-,N/A,Fog,Fog,0,2013-05-11 06:35:00
1:55 AM,44.6,44.6,100,30.07,0.2,Calm,Calm,-,N/A,Fog,Fog,0,2013-05-11 06:55:00
2:15 AM,46.4,46.4,100,30.08,0.2,Calm,Calm,-,N/A,Fog,Fog,0,2013-05-11 07:15:00
2:35 AM,44.6,44.6,100,30.08,0.2,Calm,Calm,-,N/A,Fog,Fog,0,2013-05-11 07:35:00
2:55 AM,44.6,44.6,100,30.08,0.2,South,3.5,-,N/A,Fog,Fog,180,2013-05-11 07:55:00
3:15 AM,44.6,44.6,100,30.08,0.2,Calm,Calm,-,N/A,Fog,Fog,0,2013-05-11 08:15:00
3:35 AM,44.6,44.6,100,30.08,0.2,Calm,Calm,-,N/A,Fog,Fog,0,2013-05-11 08:35:00
3:55 AM,44.6,44.6,100,30.08,0.5,Calm,Calm,-,N/A,Fog,Fog,0,2013-05-11 08:55:00
4:15 AM,44.6,44.6,100,30.08,0.2,Calm,Calm,-,N/A,Fog,Fog,0,2013-05-11 09:15:00
4:35 AM,44.6,44.6,100,30.07,0.2,Calm,Calm,-,N/A,Fog,Fog,0,2013-05-11 09:35:00
4:55 AM,44.6,44.6,100,30.07,0.2,Calm,Calm,-,N/A,Fog,Fog,0,2013-05-11 09:55:00
5:15 AM,42.8,42.8,100,30.07,0.2,Calm,Calm,-,N/A,Fog,Fog,0,2013-05-11 10:15:00
5:35 AM,42.8,42.8,100,30.06,0.2,Calm,Calm,-,N/A,Fog,Fog,0,2013-05-11 10:35:00
5:55 AM,42.8,42.8,100,30.07,0.5,Calm,Calm,-,N/A,Fog,Fog,0,2013-05-11 10:55:00
6:15 AM,42.8,42.8,100,30.08,0.2,Calm,Calm,-,N/A,Fog,Fog,0,2013-05-11 11:15:00
6:35 AM,42.8,42.8,100,30.09,0.2,Calm,Calm,-,N/A,Fog,Fog,0,2013-05-11 11:35:00
6:55 AM,42.8,42.8,100,30.09,0.2,SSE,3.5,-,N/A,Fog,Fog,160,2013-05-11 11:55:00
7:35 AM,44.6,44.6,100,30.10,3.0,Calm,Calm,-,N/A,,Scattered Clouds,0,2013-05-11 12:35:00
7:55 AM,46.4,46.4,100,30.10,4.0,Calm,Calm,-,N/A,,Clear,0,2013-05-11 12:55:00
8:15 AM,50.0,50.0,100,30.11,7.0,West,3.5,-,N/A,,Clear,270,2013-05-11 13:15:00
8:35 AM,51.8,51.8,100,30.12,10.0,West,5.8,-,N/A,,Clear,280,2013-05-11 13:35:00
8:55 AM,53.6,51.8,94,30.12,10.0,NW,5.8,-,N/A,,Clear,310,2013-05-11 13:55:00
9:15 AM,55.4,51.8,88,30.12,10.0,Calm,Calm,-,N/A,,Clear,0,2013-05-11 14:15:00
9:35 AM,59.0,53.6,82,30.12,10.0,NW,6.9,-,N/A,,Clear,320,2013-05-11 14:35:00
9:55 AM,60.8,53.6,77,30.12,10.0,NW,5.8,-,N/A,,Clear,310,2013-05-11 14:55:00
10:15 AM,62.6,51.8,68,30.12,10.0,West,6.9,-,N/A,,Clear,280,2013-05-11 15:15:00
10:35 AM,64.4,50.0,59,30.11,10.0,WNW,6.9,-,N/A,,Clear,300,2013-05-11 15:35:00
10:55 AM,64.4,50.0,59,30.11,10.0,WNW,9.2,-,N/A,,Clear,290,2013-05-11 15:55:00
11:15 AM,66.2,50.0,56,30.12,10.0,NNW,11.5,-,N/A,,Clear,330,2013-05-11 16:15:00
11:35 AM,68.0,50.0,52,30.12,10.0,NW,10.4,-,N/A,,Clear,310,2013-05-11 16:35:00
11:55 AM,68.0,50.0,52,30.12,10.0,WNW,10.4,16.1,N/A,,Clear,300,2013-05-11 16:55:00
12:15 PM,68.0,51.8,56,30.12,10.0,NW,11.5,-,N/A,,Scattered Clouds,320,2013-05-11 17:15:00
12:35 PM,68.0,51.8,56,30.12,10.0,NNW,12.7,18.4,N/A,,Scattered Clouds,340,2013-05-11 17:35:00
12:55 PM,68.0,51.8,56,30.12,10.0,WNW,11.5,16.1,N/A,,Scattered Clouds,300,2013-05-11 17:55:00
1:15 PM,69.8,51.8,53,30.12,10.0,WNW,11.5,20.7,N/A,,Mostly Cloudy,300,2013-05-11 18:15:00
1:35 PM,69.8,51.8,53,30.12,10.0,NW,11.5,18.4,N/A,,Overcast,310,2013-05-11 18:35:00
1:55 PM,69.8,53.6,56,30.12,10.0,NW,13.8,18.4,N/A,,Overcast,310,2013-05-11 18:55:00
2:15 PM,68.0,53.6,60,30.13,10.0,NNW,15.0,23.0,N/A,,Mostly Cloudy,340,2013-05-11 19:15:00
2:35 PM,68.0,53.6,60,30.13,10.0,North,17.3,23.0,N/A,,Scattered Clouds,360,2013-05-11 19:35:00
2:55 PM,68.0,50.0,52,30.14,10.0,NNW,15.0,21.9,N/A,,Clear,330,2013-05-11 19:55:00
3:15 PM,68.0,50.0,52,30.14,10.0,NNW,18.4,21.9,N/A,,Clear,330,2013-05-11 20:15:00
3:35 PM,66.2,44.6,46,30.14,10.0,NW,16.1,24.2,N/A,,Clear,320,2013-05-11 20:35:00
3:55 PM,66.2,41.0,40,30.14,10.0,NNW,19.6,23.0,N/A,,Clear,330,2013-05-11 20:55:00
4:15 PM,66.2,41.0,40,30.14,10.0,NNW,16.1,-,N/A,,Clear,340,2013-05-11 21:15:00
4:35 PM,66.2,39.2,37,30.14,10.0,NNW,16.1,20.7,N/A,,Clear,330,2013-05-11 21:35:00
4:55 PM,64.4,37.4,37,30.15,10.0,NNW,16.1,21.9,N/A,,Clear,340,2013-05-11 21:55:00
5:15 PM,64.4,37.4,37,30.15,10.0,NNW,17.3,20.7,N/A,,Clear,330,2013-05-11 22:15:00
5:35 PM,64.4,35.6,34,30.15,10.0,North,13.8,19.6,N/A,,Clear,360,2013-05-11 22:35:00
5:55 PM,64.4,37.4,37,30.15,10.0,NNW,13.8,17.3,N/A,,Clear,330,2013-05-11 22:55:00
6:15 PM,62.6,37.4,39,30.15,10.0,NNW,13.8,21.9,N/A,,Clear,340,2013-05-11 23:15:00
6:35 PM,62.6,35.6,37,30.15,10.0,NNW,12.7,19.6,N/A,,Clear,330,2013-05-11 23:35:00
6:55 PM,62.6,35.6,37,30.15,10.0,North,12.7,19.6,N/A,,Clear,350,2013-05-11 23:55:00
7:15 PM,60.8,37.4,42,30.16,10.0,North,9.2,-,N/A,,Clear,350,2013-05-12 00:15:00
7:35 PM,60.8,37.4,42,30.16,10.0,North,8.1,-,N/A,,Clear,350,2013-05-12 00:35:00
7:55 PM,59.0,37.4,45,30.17,10.0,NNW,6.9,-,N/A,,Clear,340,2013-05-12 00:55:00
8:15 PM,57.2,37.4,48,30.17,10.0,NNW,4.6,-,N/A,,Clear,340,2013-05-12 01:15:00
8:35 PM,55.4,37.4,51,30.18,10.0,North,4.6,-,N/A,,Clear,360,2013-05-12 01:35:00
8:55 PM,55.4,37.4,51,30.18,10.0,NW,5.8,-,N/A,,Clear,320,2013-05-12 01:55:00
9:15 PM,53.6,37.4,54,30.19,10.0,NNW,6.9,-,N/A,,Clear,340,2013-05-12 02:15:00
9:35 PM,53.6,37.4,54,30.19,10.0,NNW,6.9,-,N/A,,Clear,330,2013-05-12 02:35:00
9:55 PM,51.8,35.6,54,30.20,10.0,NNW,4.6,-,N/A,,Clear,330,2013-05-12 02:55:00
10:15 PM,51.8,37.4,58,30.20,10.0,NNW,3.5,-,N/A,,Clear,340,2013-05-12 03:15:00
10:35 PM,51.8,35.6,54,30.20,10.0,Calm,Calm,-,N/A,,Clear,0,2013-05-12 03:35:00
10:55 PM,50.0,35.6,58,30.21,10.0,Calm,Calm,-,N/A,,Clear,0,2013-05-12 03:55:00
11:15 PM,50.0,35.6,58,30.21,10.0,Calm,Calm,-,N/A,,Clear,0,2013-05-12 04:15:00
11:35 PM,50.0,35.6,58,30.21,10.0,Calm,Calm,-,N/A,,Clear,0,2013-05-12 04:35:00
11:55 PM,50.0,35.6,58,30.21,10.0,NNW,3.5,-,N/A,,Clear,330,2013-05-12 04:55:00